Погода в Теккекёе

Турция     41°12′33″N   36°27′34″E
темп.,
°C
ветер,
м/с
пор.,
м/с
влажн.,
%
обл.,
%
осадки,
мм/ч
давл.,
гПа
погр.,
м
16 июня, ср
ср1600:00+18ссз3487100 0.3 1011350
03:00+17сз1291100 0.8 1011184
06:00+17ссз1193100 0.8 1011150
09:00+17ю1292100 1.0 1010152
12:00+20всв237964 0.1 1009572
15:00+21ссв457750 0.3 1007680
18:00+19с2487100 0.8 1007333
21:00+17сз2496100 14.7 1010224
17 июня, чт
чт1700:00+17сз239176 1.5 1011150
03:00+17юз228599 2.5 101277
06:00+17ююз2279100 0.3 101366
09:00+19юз127587 0.3 101593
12:00+23зсз12595 0.0 1015696
15:00+22св44669 0.1 1015545
18:00+21св457455 0.3 1017356
21:00+18юв12841 0.3 101757
18 июня, пт
пт1800:00+17ююз21841 0.0 101759
03:00+17юз11800 0.0 101663
06:00+17ююз22760 0.0 101658
09:00+20св21680 0.0 1016317
12:00+21с22720 0.0 1015517
15:00+23св33723 0.0 1014578
18:00+22всв45750 0.0 1015488
21:00+18вюв11900 0.0 101635
19 июня, сб
сб1900:00+17юз11890 0.0 101539
03:00+17юз22870 0.0 101478
06:00+17ююз22810 0.0 101354
09:00+21ссз11660 0.0 1012302
12:00+22с22650 0.0 1012479
15:00+22с22620 0.0 1011446
18:00+22с11640 0.0 1010194
21:00+19ю11780 0.0 101111
20 июня, вс
вс2000:00+19юз22760 0.0 101115
03:00+18ююз22710 0.0 101014
06:00+18ююз22670 0.0 101128
09:00+22с11600 0.0 1011238
12:00+22с22600 0.0 1011390
15:00+23с33650 0.0 1011442
18:00+22сз12750 0.0 1010267
21:00+20зюз228511 0.0 101124